Regional Weather Roundup
Issued by NWS

Home | Current Version | Previous Version | Graphics & Text | Print | Product List | Glossary On
Versions: 1 2 3 4 5 6 7 8 9 10 11 12 13 14 15 16 17 18 19 20 21 22 23 24 25 26 27 28 29 30 31 32 33 34 35 36 37 38 39 40 41 42 43 44 45 46 47 48 49 50
000
ASUS45 KTFX 230604
RWRMT
MONTANA HOURLY WEATHER ROUNDUP
NATIONAL WEATHER SERVICE GREAT FALLS MT
1204 AM MDT TUE SEP 23 2014

NOTE: "FAIR" INDICATES FEW OR NO CLOUDS BELOW 12000 FEET WITH NO
SIGNIFICANT WEATHER AND/OR OBSTRUCTIONS TO VISIBILITY.

* THESE STATIONS ARE NOT UNDER NWS QUALITY CONTROL. THEY DO NOT
   REPORT WEATHER SUCH AS PRECIPITATION OR FOG.

MTZ001>007-043-230700-
WEST OF THE DIVIDE
CITY           SKY/WX    TMP DP  RH WIND       PRES   REMARKS
KALISPELL      PTCLDY    52  46  80 CALM      29.93R
MISSOULA       PTCLDY    61  45  56 N3        29.98R
BUTTE          PTCLDY    48  45  89 SE6       30.12S
MULLAN PASS    PTCLDY    55  43  64 NW7       30.12S
* ESSEX        N/A       56  45  67 SE3G8      N/A
* LINCOLN      N/A       51  37  59 NE2        N/A
* POLSON       N/A       62  42  48 N/A        N/A
* RONAN APT    MOCLDY    61  45  56 N/A        N/A
* SEELEY LAKE  N/A       49  37  63 NE2        N/A
* THOMP F APT  PTCLDY    50  48  93 N5         N/A
$$

MTZ008-052>055-230700-
SOUTHWEST MONTANA
CITY           SKY/WX    TMP DP  RH WIND       PRES   REMARKS
BOZEMAN        PTCLDY    52  48  86 S7        30.06R
DILLON         PTCLDY    54  48  80 S8        30.10S
W YELLOWSTONE  CLOUDY    50  46  86 SW3       30.22R
* THREE FORKS  PTCLDY    55  30  39 N/A        N/A
* BOULDER HILL N/A       58  43  58 S9         N/A
* MONIDA PASS  N/A       48  48 100 SE8        N/A
* RAYNOLDS PAS N/A       48  28  46 S6         N/A
* WHITEHALL    N/A       55  48  77 N3         N/A
* WISE RIVER   N/A       54  44  69 W9         N/A
$$

MTZ009>010-012-014-046-048-049-054-230700-
EAST SLOPES AND CENTRAL MONTANA
CITY           SKY/WX    TMP DP  RH WIND       PRES   REMARKS
CUT BANK       MOCLDY    61  45  56 W13       29.92S
GREAT FALLS    MOCLDY    63  48  58 SW10      29.93S
HELENA         PTCLDY    61  50  67 W7        30.00S
MALMSTROM AFB  MOCLDY    63  50  63 SW9       29.93S
* CONRAD       MOCLDY    64  50  61 N/A        N/A
* EAST GLACIER N/A       58  42  55 W6         N/A
* MONARCH      N/A       57  43  60 N/A        N/A
* PENDROY      N/A       67  45  45 NW14       N/A
* ROGERS PASS  N/A       55  39  55 NW2        N/A
* SAINT MARY   N/A       52  44  74 S3         N/A
* SWEET GRASS  N/A       63  43  48 W12        N/A
$$

MTZ011-013-016-021-035-040-045-047-050-051-230700-
NORTH CENTRAL MONTANA
CITY           SKY/WX    TMP DP  RH WIND       PRES   REMARKS
HAVRE          PTCLDY    54  46  74 CALM      29.84S
LEWISTOWN      CLEAR     55  46  72 S7        29.96R
* CHESTER      N/A       55  43  64 NW1        N/A
* DENTON       N/A       55  48  77 S8         N/A
* GEYSER       N/A       59  45  60 W9         N/A
* JUDITH GAP   N/A       52  51  96 S1         N/A
* LOMA         N/A       64  49  58 W3         N/A
$$

MTZ017>020-022>027-061-062-230700-
NORTHEAST MONTANA
CITY           SKY/WX    TMP DP  RH WIND       PRES   REMARKS
GLASGOW        CLEAR     61  46  58 SE8       29.83S
GLENDIVE       CLEAR     57  48  72 NE6       29.86S
JORDAN         CLEAR     52  46  80 W5        29.85S
SIDNEY         CLEAR     52  46  80 CALM      29.86F
WOLF POINT     CLEAR     55  48  77 E5        29.84S
* BEAVER HILL  N/A       58  49  72 SE13       N/A
* CIRCLE       N/A       57  48  72 N/A        N/A
* LINDSAY DVD  N/A       56  49  77 NE3        N/A
* NAVAJO       N/A       60  48  65 S8         N/A
$$

MTZ028>042-056>058-230700-
SOUTHCENTRAL AND SOUTHEAST MONTANA
CITY           SKY/WX    TMP DP  RH WIND       PRES   REMARKS
BAKER          PTCLDY    57  50  78 E8        29.88F
BILLINGS       PTCLDY    66  46  49 SW10      29.94S
LIVINGSTON     PTCLDY    57  46  67 NW17      30.04S
MILES CITY     CLEAR     57  46  67 CALM      29.85S
* LAUREL APT   PTCLDY    72  45  38 SW9        N/A
* ROUNDUP APT  PTCLDY    61  48  62 W5         N/A
* ALZADA       N/A       65  54  68 SE7G12     N/A
* HYSHAM       N/A       68  46  45 W5         N/A
* LAME DEER    N/A       65  49  56 W8         N/A
* REED POINT   N/A       65  45  49 W6         N/A
* ROSCOE HILL  N/A       64  36  35 SW10G17    N/A
$$

REGIONAL REPORTS...DAKOTAS
CITY           SKY/WX    TMP DP  RH WIND       PRES   REMARKS
WILLISTON      CLEAR     57  48  72 NE3       29.87S
DICKINSON      CLEAR     57  50  78 S13       29.87F
BEACH          N/A       54  50  86 SE6       29.88S
CROSBY         CLEAR     61  50  67 S13       29.87F
TIOGA          CLEAR     52  50  93 E7        29.92F
WATFORD CITY   CLEAR     57  48  72 SE6       29.85F
BISMARCK       CLEAR     61  52  72 SE8       29.94S
GRAND FORKS    CLEAR     54  48  80 SE7       30.03S
FARGO          CLEAR     61  48  62 SE12      30.05S
BUFFALO SD     MOCLDY    61  52  72 SE10      29.83F
RAPID CITY     MOCLDY    61  55  81 S6        29.93F
$$

REGIONAL REPORTS...WYOMING/IDAHO/WASHINGTON
CITY           SKY/WX    TMP DP  RH WIND       PRES   REMARKS
GILLETTE       CLOUDY    61  52  72 S10       29.97S
SHERIDAN       PTCLDY    54  46  74 W6        29.96S
CODY           PTCLDY    64  45  50 W10G18    30.06S
YELLOWSTONE LA MOCLDY    46  46 100 CALM      30.29S
SALMON         MOCLDY    59  50  72 CALM      30.07R
MULLAN PASS    PTCLDY    55  43  64 NW7       30.12S
SAND POINT     MOCLDY    57  52  83 CALM      29.92R
SPOKANE        CLOUDY    70  52  53 S8        29.93R

$$



USA.gov is the U.S. government's official web portal to all federal, state and local government web resources and services.